Theta_e
325 325 325 325 326 326 327 326 326 327 329 327 325 325 324 324 324 325 326 327 326 327 326 326 326 326 326 327 326 325 325 324 323 323 324 323 322 317 319 322 324 325 327 329 329 329 328 326 324 323 323 323 323 322 322 322 322 321 321 320 319 319 319 317 316 317 316 316 315 315 315 315 314 314 314 314 314 314 314 313 313 313 313 313 313
326 326 325 324 324 325 325 325 325 327 327 326 324 325 324 323 323 324 325 326 326 326 326 325 325 326 327 326 326 325 325 323 323 323 323 323 323 316 315 319 322 324 325 326 331 329 328 327 324 322 322 322 322 322 321 322 320 320 321 320 319 319 319 318 316 316 315 315 315 315 315 314 314 313 313 314 314 313 313 313 313 313 313 312 313
327 327 326 325 325 325 324 326 326 326 327 326 325 324 324 323 323 323 325 325 325 326 325 325 326 326 326 326 326 326 324 323 323 324 322 323 323 323 323 316 321 322 324 326 329 329 328 327 325 323 322 323 322 321 322 321 320 319 320 320 319 319 319 318 316 316 316 315 314 314 314 314 313 313 313 313 313 313 313 313 312 313 313 312 312
328 327 326 325 324 324 324 324 324 324 325 325 324 325 324 324 324 325 326 326 325 325 326 325 325 325 325 325 326 325 324 323 323 322 322 323 322 323 323 322 316 318 321 324 326 329 328 327 325 324 323 322 323 322 322 321 321 320 320 319 318 318 319 317 316 317 316 315 314 313 314 313 313 313 312 313 313 312 312 312 312 312 312 312 312
328 328 327 326 325 324 323 323 323 323 325 325 325 325 323 323 324 325 325 325 324 324 327 326 325 324 324 325 325 324 324 324 323 322 322 323 321 321 323 320 320 315 316 319 325 328 327 324 325 322 323 322 322 323 322 322 321 321 321 320 319 318 318 317 316 316 316 315 315 314 313 313 312 312 312 312 312 312 311 312 312 312 311 311 311
328 327 326 326 326 325 325 324 324 324 325 325 324 324 323 323 322 323 320 321 322 323 324 324 324 324 324 324 324 324 325 324 322 322 322 321 321 322 321 321 318 320 326 317 320 325 328 324 325 323 322 322 323 322 323 322 321 321 321 320 319 319 319 318 316 315 315 314 314 313 313 312 312 312 311 311 311 311 311 311 311 311 311 311 311
329 327 326 326 326 326 326 326 326 325 324 324 323 322 323 322 321 321 321 321 321 322 324 323 323 323 324 324 324 324 324 323 323 323 322 322 322 322 322 321 320 319 322 324 316 320 324 325 324 323 323 323 323 323 323 322 322 322 321 320 319 319 319 319 317 316 315 314 313 313 313 312 311 311 311 311 311 311 311 311 311 310 311 311 310
329 328 326 325 326 326 326 326 327 327 325 324 323 322 322 323 323 322 320 321 322 321 323 323 323 324 324 324 324 323 323 323 323 322 323 322 321 321 321 321 321 320 316 318 322 319 319 322 324 323 323 323 322 323 322 322 322 322 321 320 319 318 319 317 317 316 316 314 313 312 312 311 311 310 311 310 310 310 310 311 311 310 310 310 310
330 330 328 326 326 326 326 327 328 327 327 324 324 324 324 324 322 322 323 321 322 322 322 323 323 323 324 324 324 324 324 323 322 322 324 321 320 320 320 321 321 315 318 317 320 320 315 318 322 323 323 323 322 321 321 322 321 321 322 320 320 319 318 317 316 316 316 314 312 312 311 311 311 311 311 310 310 310 310 310 310 310 310 310 310
330 330 329 326 326 326 327 327 327 327 326 325 325 324 322 322 322 323 323 322 320 321 321 322 323 323 323 322 323 324 323 323 323 320 322 321 320 320 319 320 320 319 318 317 319 319 318 314 314 315 313 316 321 320 321 321 321 322 321 321 321 319 318 317 315 315 315 313 312 312 311 311 311 311 310 310 310 309 310 310 310 309 309 309 309
330 330 329 327 325 326 326 327 327 326 325 325 324 324 323 323 322 322 323 324 322 321 321 322 323 323 323 322 322 323 324 324 323 322 322 321 320 320 321 320 319 318 318 319 318 318 318 317 315 316 315 312 318 320 321 320 320 321 322 321 321 320 319 318 316 314 314 313 312 311 311 311 311 311 310 310 309 309 309 310 310 309 309 309 309
329 330 330 329 326 325 325 327 326 325 324 324 323 323 323 323 323 322 322 323 323 323 322 322 322 321 320 322 322 322 323 323 323 322 322 321 321 320 318 319 318 318 318 318 318 319 317 317 315 316 316 313 313 317 318 320 320 320 322 322 321 320 319 318 316 314 314 313 313 312 311 310 311 311 310 310 309 309 309 309 309 309 309 309 309
329 330 329 327 327 326 326 325 326 324 324 324 324 323 324 324 322 322 321 321 321 322 323 323 320 318 320 321 321 322 322 323 322 322 322 322 320 316 317 317 316 316 317 317 317 317 316 316 315 316 315 314 310 311 313 315 316 319 322 321 321 321 320 319 318 316 313 313 313 312 311 310 310 310 310 310 309 309 309 309 309 309 309 309 308
330 329 329 329 327 326 326 325 324 324 324 325 325 322 324 324 323 321 322 320 320 322 322 321 318 315 314 316 317 320 321 321 320 320 321 321 320 317 316 315 315 315 316 316 316 315 315 314 315 314 314 313 311 310 310 310 311 316 320 319 319 321 321 320 318 316 314 313 312 312 312 310 310 310 310 310 309 309 309 309 309 308 308 308 308
331 330 328 328 328 327 326 326 325 324 323 324 323 323 323 323 323 321 320 321 321 323 323 322 316 317 317 314 312 312 317 318 320 319 320 319 319 317 315 314 313 314 315 314 314 314 314 313 313 313 312 309 308 307 307 306 307 309 315 318 318 320 321 320 319 316 314 313 312 312 312 311 310 310 309 309 310 309 309 308 309 309 308 308 308
330 330 329 329 329 327 326 326 326 325 324 323 323 322 323 323 322 321 321 318 319 319 323 323 319 317 311 312 312 312 309 312 314 318 319 319 317 317 315 313 313 314 314 313 312 313 313 313 312 311 310 308 307 306 306 304 304 306 309 311 315 318 319 320 319 316 314 314 313 312 311 311 310 310 310 309 309 309 309 308 308 308 308 308 308
330 330 330 329 329 329 328 327 326 326 325 323 322 322 323 323 323 321 320 318 318 319 320 322 321 320 316 312 311 309 309 312 315 315 317 316 316 316 316 314 314 313 313 312 312 312 312 311 311 310 309 307 306 305 304 303 305 306 308 306 309 314 318 318 318 318 316 314 313 312 312 311 310 309 309 310 309 308 308 308 308 308 308 308 308
330 330 330 328 328 329 329 328 327 326 326 324 324 323 323 323 323 322 321 321 318 319 318 320 321 321 321 319 317 312 312 314 313 309 315 317 314 314 315 315 315 313 312 312 311 311 311 311 310 309 308 307 305 304 302 302 302 305 305 307 309 312 314 316 316 318 317 315 314 312 313 312 310 309 309 309 309 308 307 307 307 308 308 308 307
329 330 330 329 329 329 329 329 328 327 326 325 324 324 324 324 324 323 321 321 320 316 318 319 319 319 320 321 320 320 320 315 311 313 309 311 312 311 312 314 314 314 312 311 311 310 310 310 309 308 307 306 304 303 302 301 303 304 306 306 308 310 311 312 314 316 317 316 314 313 312 312 311 310 309 308 308 308 308 307 307 308 308 307 307
330 330 330 329 328 328 329 329 329 328 327 326 326 326 325 326 325 324 323 322 321 317 316 319 317 316 318 319 319 320 321 321 320 316 312 310 308 310 311 311 310 311 312 311 310 310 309 309 308 307 305 305 304 302 302 301 301 302 302 305 306 309 310 311 311 313 315 315 315 313 312 312 311 311 310 309 309 309 308 307 307 307 308 307 307
330 330 330 330 328 328 328 329 329 329 327 327 327 327 326 325 325 324 323 322 322 321 318 316 319 319 317 317 319 319 319 319 320 319 314 311 311 311 307 309 308 308 308 310 310 310 310 309 308 307 305 304 303 303 302 301 300 301 302 304 306 308 309 309 309 311 311 312 312 312 312 312 311 311 310 309 309 309 308 308 307 307 307 307 307
330 330 330 330 330 328 328 328 328 329 326 328 328 327 327 326 326 325 325 324 323 322 320 319 318 320 320 319 316 317 317 317 317 317 316 315 312 312 313 303 302 304 306 306 307 309 310 309 308 307 305 304 303 302 302 301 300 302 301 303 306 307 309 308 309 310 309 309 308 308 309 310 310 310 309 309 310 309 308 308 308 308 307 307 307
330 330 330 330 330 329 327 328 329 328 327 328 327 327 326 326 326 326 325 324 323 322 321 321 319 319 321 320 318 317 316 314 315 316 315 313 312 311 313 313 309 309 308 307 306 307 308 308 308 306 305 305 303 302 301 301 300 301 301 302 305 306 307 309 309 308 308 308 307 306 306 306 305 307 308 308 309 309 309 309 308 308 307 307 306
330 329 329 330 329 329 328 328 327 328 328 328 328 327 327 327 326 325 324 324 324 323 322 320 320 319 320 321 320 320 319 318 318 317 316 314 314 312 312 313 313 313 316 309 308 306 307 307 307 307 306 304 303 302 301 301 300 298 300 301 303 305 307 309 309 308 308 307 306 305 305 304 304 304 304 305 307 308 309 309 308 308 307 307 306
328 328 328 329 329 328 328 327 327 327 328 328 328 328 327 327 326 325 324 324 323 323 321 321 321 320 318 320 322 321 320 321 320 319 318 317 316 313 314 315 311 313 315 311 306 306 307 306 306 307 306 304 304 302 301 300 300 298 298 300 302 304 306 307 309 310 310 309 307 306 305 305 305 305 305 304 304 306 307 307 307 307 307 306 306
328 328 329 329 328 328 328 328 328 328 327 328 328 328 328 327 326 325 325 325 324 323 322 322 322 322 321 319 320 321 321 321 320 320 319 318 315 314 314 314 315 313 309 304 307 304 304 305 306 306 305 304 303 302 300 300 300 297 296 299 301 304 306 307 308 309 310 309 309 307 306 305 305 305 305 305 305 305 305 305 306 306 306 305 305
328 329 330 329 328 328 328 328 328 327 327 327 327 328 327 326 326 326 326 326 325 323 322 322 321 321 322 321 320 321 321 322 321 320 320 319 318 317 315 312 310 310 306 300 299 302 306 303 303 303 304 303 302 302 300 299 298 296 295 298 299 300 302 305 306 307 309 310 309 308 306 305 305 305 304 304 304 304 305 305 305 305 304 304 305
330 330 330 330 329 328 328 328 328 328 327 327 327 326 327 326 325 325 325 326 325 324 323 323 322 321 321 322 320 320 321 322 321 320 320 321 320 319 318 316 312 307 302 303 298 301 305 304 303 302 302 303 302 301 299 298 299 295 294 296 297 298 300 302 304 304 305 307 308 308 307 306 306 306 305 303 303 302 303 305 304 304 303 302 303
329 330 330 330 329 328 328 327 327 328 327 326 326 326 326 325 324 324 324 325 323 323 322 321 321 321 321 321 320 320 320 321 321 320 320 320 321 320 320 318 317 312 307 300 302 303 305 305 304 304 302 302 301 301 299 298 297 295 295 295 295 296 298 300 301 302 303 305 305 307 307 306 306 305 305 304 303 302 303 302 301 301 300 300 300
329 330 330 330 329 325 328 327 327 327 326 327 326 326 326 324 324 324 324 324 323 322 322 322 321 321 320 320 320 319 320 320 320 320 320 320 320 320 320 320 319 314 312 309 307 305 306 303 305 306 302 302 302 300 299 297 295 294 295 294 294 295 297 298 300 301 303 303 305 307 307 306 305 305 304 303 302 302 302 303 302 301 301 301 301
328 329 329 329 328 328 327 327 327 326 326 326 326 325 325 323 323 322 323 323 322 321 321 321 321 320 319 319 319 319 320 319 320 320 320 320 320 320 319 319 318 317 315 312 307 305 310 304 303 306 302 301 299 297 296 297 294 294 294 294 294 294 295 296 297 300 301 302 302 303 305 305 305 305 304 303 302 301 302 302 301 301 300 300 300
328 329 328 328 328 327 327 327 326 326 326 325 325 325 325 323 322 322 322 322 320 319 320 320 320 320 319 318 318 319 319 319 319 319 319 319 319 318 318 318 317 317 315 312 309 307 305 307 304 302 299 297 296 295 294 295 295 293 294 294 294 293 294 295 295 297 299 300 301 301 301 302 303 304 303 303 302 302 302 302 301 300 300 300 300
328 328 328 327 327 327 327 325 325 325 325 325 325 324 323 323 322 322 321 321 319 319 319 319 319 319 318 317 317 318 319 318 318 318 318 318 318 318 318 317 316 316 314 311 308 307 299 295 299 297 296 296 294 295 294 293 293 292 293 294 294 293 292 292 293 294 296 298 299 299 300 300 300 300 300 301 301 301 300 301 300 299 299 299 298
328 327 327 327 327 327 325 325 325 324 324 324 324 324 323 322 321 322 321 319 318 317 317 316 317 318 317 316 316 316 317 316 316 316 316 316 316 316 315 314 314 312 312 311 308 307 306 290 293 295 294 295 292 294 293 292 292 291 291 291 292 291 291 291 291 291 294 295 296 297 298 299 298 297 298 298 298 297 297 298 298 297 297 297 296
327 327 326 327 327 326 325 324 324 324 324 324 324 324 323 322 321 321 321 319 317 316 315 315 315 316 315 315 315 316 317 315 315 315 315 315 314 314 313 312 311 311 310 311 309 304 304 300 296 292 292 292 294 293 293 294 292 291 289 289 289 290 291 290 290 291 294 294 295 295 297 297 297 297 297 297 296 295 295 296 296 296 296 295 295
325 326 326 326 326 326 324 323 323 323 323 323 323 323 323 322 321 321 320 319 318 317 316 316 316 315 314 314 314 315 315 314 314 314 315 314 313 312 311 310 309 309 309 308 309 307 302 301 290 294 292 291 291 290 292 290 289 289 289 288 289 289 289 290 290 290 292 295 294 294 295 295 296 296 296 296 295 295 295 295 295 294 294 294 294
325 325 325 326 326 325 324 323 323 322 323 323 323 323 323 322 321 321 320 319 318 317 317 316 310 315 315 314 315 315 315 313 313 313 313 312 311 311 310 310 307 308 306 305 304 302 300 299 294 290 289 289 289 289 289 288 287 287 287 287 287 287 288 289 289 289 291 293 293 293 293 294 294 294 295 295 294 294 294 294 294 294 293 293 293
324 324 325 325 325 324 324 324 323 322 322 323 323 322 322 321 321 320 320 318 317 317 317 316 316 316 315 315 315 315 314 313 312 313 312 310 310 308 307 306 304 302 300 297 296 297 298 299 295 289 288 288 286 286 288 288 286 285 285 286 287 287 286 286 287 288 289 288 288 289 290 291 292 293 293 294 294 294 294 294 293 293 293 293 293
324 323 324 324 323 323 323 323 323 322 322 321 321 321 320 320 319 318 318 318 317 317 317 317 317 316 316 316 315 315 314 314 313 312 311 307 306 304 304 304 300 299 297 296 295 295 295 295 292 293 289 288 287 285 286 287 286 286 285 284 284 286 286 285 285 287 287 287 289 289 289 288 289 289 290 292 293 293 293 293 293 292 292 292 292
323 323 323 322 322 320 321 321 322 322 321 320 320 320 319 319 318 317 317 316 316 316 316 317 316 316 316 316 316 315 315 314 313 313 311 307 305 302 301 300 297 296 296 295 294 295 295 294 294 292 289 287 286 285 285 285 284 284 286 286 286 285 285 285 286 285 286 286 285 285 288 288 288 288 290 290 291 292 292 292 292 291 290 291 291
321 321 322 321 320 319 318 319 319 319 319 319 320 319 318 318 319 317 317 316 315 315 315 314 315 315 315 315 315 315 312 303 302 304 304 304 306 302 298 297 296 295 294 293 294 294 293 293 292 291 288 287 286 284 283 283 284 287 286 286 286 287 286 284 285 286 286 284 283 283 284 284 283 283 284 284 286 288 289 290 289 289 290 290 290
319 316 317 318 318 318 317 317 317 318 318 319 309 306 307 316 318 318 317 316 315 315 313 312 310 309 312 313 311 301 300 298 298 299 300 299 300 304 303 299 297 296 294 293 293 293 293 292 293 293 288 289 287 286 285 286 287 287 286 286 285 286 285 285 285 285 286 285 283 283 284 284 283 282 283 284 285 286 285 285 285 286 287 289 290
314 313 312 314 314 316 316 316 315 316 317 316 305 306 305 306 314 317 316 315 315 314 313 312 310 305 304 304 305 300 297 296 297 296 298 297 297 297 298 297 297 299 294 293 293 294 292 292 293 292 291 291 291 288 287 288 286 286 287 286 286 285 285 285 284 284 283 285 283 281 283 283 284 283 283 284 284 283 284 284 287 288 289 289 289
306 303 305 310 312 313 313 314 314 314 315 305 305 304 304 304 304 313 316 315 314 313 312 312 311 307 304 302 300 300 299 300 300 298 295 295 295 295 295 295 295 296 297 296 294 292 291 291 291 291 291 291 293 289 288 287 287 287 287 286 285 285 285 286 285 284 282 283 281 280 282 282 282 282 282 282 282 282 284 286 287 287 288 288 288
298 301 305 305 307 308 310 311 311 312 312 305 304 304 303 303 303 306 315 315 313 312 311 309 306 304 302 301 299 296 299 292 293 296 296 294 292 293 293 293 293 295 296 296 296 296 295 292 291 292 293 292 292 289 289 289 288 287 287 286 286 286 287 286 286 283 277 280 280 279 280 281 281 282 280 281 282 282 283 286 287 287 288 288 288
299 300 300 301 302 303 306 308 309 309 308 303 302 302 302 301 302 302 311 313 312 311 308 306 305 303 301 300 298 296 294 292 293 294 294 294 293 293 293 294 295 292 292 293 292 292 293 294 293 292 293 293 292 290 290 289 288 287 286 286 286 286 286 285 281 280 278 280 281 280 279 281 281 280 279 281 281 280 279 283 286 286 287 287 287
298 299 299 299 300 300 301 302 303 305 307 300 300 300 300 300 301 301 308 309 309 307 306 303 302 302 301 300 299 298 296 294 294 294 294 294 293 293 293 292 294 293 292 292 293 293 292 293 293 294 292 292 290 289 290 290 289 288 288 286 286 285 283 281 280 280 278 279 279 279 278 281 277 279 279 280 279 279 280 284 285 286 286 286 286
297 298 298 299 299 299 299 299 299 301 302 299 298 298 299 300 300 302 304 306 305 302 300 299 299 299 298 298 297 297 297 295 293 293 295 296 293 290 290 290 290 291 291 291 292 292 292 291 290 289 288 289 290 289 289 289 288 287 286 285 285 283 282 281 280 281 281 278 278 279 277 280 278 278 280 280 278 278 279 279 284 284 284 285 285
295 295 297 297 298 298 297 297 298 299 300 297 296 297 297 298 299 301 301 300 299 298 298 296 296 296 296 297 297 297 296 296 293 293 295 294 291 289 289 289 289 288 288 287 289 289 289 289 290 290 291 291 291 292 292 292 289 287 286 284 281 283 281 280 281 281 281 278 277 278 278 278 279 278 277 279 279 279 278 278 276 281 281 282 283
294 295 295 296 296 296 296 296 297 298 298 295 295 296 296 297 297 299 298 298 296 296 294 293 293 294 294 291 292 296 295 295 293 293 294 293 291 289 288 288 287 287 287 285 286 287 288 288 288 288 289 290 290 291 292 292 291 288 285 283 283 283 281 281 280 282 281 277 278 278 277 277 277 277 276 277 279 278 278 276 276 276 280 281 282
295 296 294 296 295 295 295 295 291 295 297 295 294 295 295 296 295 297 297 296 296 295 294 293 291 292 292 289 289 292 294 294 293 293 294 293 291 289 289 288 288 287 288 285 286 285 285 284 285 285 286 286 287 287 288 290 289 287 284 283 285 283 282 282 281 281 279 278 275 278 276 278 276 278 276 275 275 276 273 275 276 275 276 276 277
Wind_Speed
6 7 7 8 6 6 6 7 7 6 6 6 5 6 5 4 4 5 4 4 4 4 3 2 3 3 1 2 2 3 2 2 2 1 2 2 3 5 3 0 4 4 5 7 8 10 12 11 10 10 9 8 8 7 7 6 6 6 7 6 6 6 6 6 5 5 5 5 5 5 5 6 6 6 6 7 7 7 9 9 9 10 11 11 12
6 6 7 7 8 8 8 8 7 6 6 6 6 5 5 5 5 5 5 4 3 2 1 3 3 2 2 2 3 4 2 2 1 3 3 2 2 6 5 2 1 3 5 6 5 12 12 11 8 8 8 8 9 8 8 7 6 6 6 6 6 6 6 6 5 5 5 4 4 4 5 5 5 5 5 6 7 7 8 9 10 10 10 11 12
7 7 7 7 7 7 7 7 6 6 6 6 5 6 5 6 5 5 5 4 4 3 3 4 3 4 4 3 3 4 3 3 3 2 3 3 3 3 6 5 3 1 3 5 6 12 12 12 10 8 9 10 9 8 8 8 7 6 7 7 6 6 6 6 5 4 5 4 3 3 4 4 3 4 4 5 6 6 7 8 9 10 11 11 12
7 7 7 6 6 7 7 7 6 6 6 6 6 6 6 5 4 4 3 3 3 3 4 4 4 4 3 3 4 4 4 4 4 4 4 3 2 3 5 5 5 3 1 5 7 8 14 13 11 11 12 11 11 10 9 8 8 8 8 7 6 6 6 5 5 4 4 4 3 3 3 3 3 3 4 4 5 5 6 8 8 9 10 11 11
7 8 7 7 6 6 6 7 6 6 6 7 7 6 6 4 3 3 3 3 4 5 4 4 5 5 4 4 4 5 5 4 4 4 4 3 4 3 2 3 4 6 3 3 4 7 11 10 12 11 12 11 10 11 10 9 9 9 9 8 7 6 6 6 5 4 4 4 4 3 2 2 2 2 3 3 4 5 6 7 8 9 9 10 12
8 8 8 8 7 7 7 7 6 7 6 6 7 6 5 5 5 5 5 5 6 6 6 6 6 5 5 4 4 4 5 5 5 4 4 5 5 4 4 3 3 4 5 3 2 6 10 9 13 12 11 11 11 11 11 10 10 10 10 8 8 7 8 7 6 6 5 3 3 3 2 2 1 1 1 3 4 5 5 6 8 8 9 10 10
9 8 8 8 7 7 7 7 6 6 6 6 7 6 5 6 6 6 6 7 7 7 7 6 6 6 5 5 5 5 5 6 5 4 4 4 5 4 4 3 3 2 3 4 3 3 6 10 14 10 10 10 10 10 10 11 10 11 10 9 8 8 8 7 7 6 5 5 4 3 2 1 1 0 1 2 3 4 5 6 7 7 8 9 10
10 9 8 7 7 7 7 7 7 6 6 6 6 6 7 6 7 7 7 7 7 7 6 6 6 6 6 5 5 6 6 6 6 6 4 5 5 6 5 4 3 4 3 4 5 3 1 7 10 11 11 11 10 10 10 11 11 11 11 11 10 9 8 8 7 7 6 5 4 4 3 2 1 1 1 2 3 4 5 6 7 6 7 7 9
11 10 9 9 8 8 7 7 7 7 7 7 6 6 6 6 7 8 7 7 7 8 7 7 6 7 6 6 6 6 6 6 6 6 4 5 5 5 5 5 3 2 3 4 3 4 3 2 8 9 9 9 11 11 11 11 12 12 12 12 12 10 9 9 8 8 7 6 5 4 3 3 2 1 1 1 3 4 5 6 7 7 8 8 9
12 11 10 10 8 8 8 8 8 8 7 7 7 7 8 7 8 8 8 8 7 7 8 7 6 6 7 8 7 6 7 6 5 5 6 6 6 6 6 6 4 5 4 5 4 6 4 1 2 4 5 5 7 11 12 12 13 13 13 13 13 12 10 10 9 8 7 7 6 5 4 4 2 2 2 2 2 3 4 5 5 6 7 7 8
12 12 11 10 10 9 8 8 8 7 8 9 8 8 8 9 9 8 8 8 8 8 7 6 6 7 7 8 7 8 7 6 5 5 4 6 6 6 5 6 5 5 5 4 4 5 7 6 5 4 4 6 6 9 11 12 13 14 14 14 14 13 12 11 10 9 9 8 7 6 5 4 3 3 2 2 2 3 4 5 5 5 6 7 8
12 11 11 11 11 9 9 9 8 8 8 9 9 9 10 10 10 10 9 8 8 7 7 7 7 8 8 8 9 8 9 7 7 7 6 7 6 6 6 6 6 6 6 5 5 5 6 7 7 6 6 7 9 7 8 9 10 12 15 15 15 15 14 12 11 10 10 9 8 7 6 5 4 4 3 3 3 3 3 5 6 5 6 7 8
11 12 12 11 11 10 10 10 9 9 9 10 10 10 10 10 9 8 10 10 9 8 8 6 7 7 7 9 9 9 9 8 8 8 9 6 5 5 5 6 6 6 6 6 6 6 6 7 7 7 7 5 7 8 9 8 7 10 13 15 16 16 15 14 13 11 10 10 9 8 7 6 6 5 5 4 4 4 4 5 5 6 6 7 7
11 12 11 12 12 11 10 10 11 9 9 9 10 10 10 9 8 8 9 10 9 9 8 8 8 8 7 7 9 9 9 9 9 11 11 8 7 6 6 7 7 7 6 6 6 7 7 6 7 7 7 5 6 7 7 7 7 11 13 14 16 16 17 15 14 13 11 10 10 9 8 8 7 6 6 5 5 5 5 5 6 6 6 6 8
14 13 12 13 14 13 11 10 11 10 9 10 10 11 10 11 11 9 8 9 9 8 10 11 8 7 7 6 6 6 6 6 9 11 11 9 7 7 7 7 8 7 6 6 6 7 7 7 7 7 7 6 6 6 6 7 8 11 13 14 15 16 17 16 15 13 12 11 11 10 10 9 8 7 7 6 6 5 5 6 6 7 6 7 8
15 14 12 12 13 13 11 10 11 11 10 10 11 11 11 11 11 11 9 8 9 10 10 11 9 7 8 8 6 5 7 8 10 9 11 11 9 9 8 8 8 8 6 7 7 7 7 7 9 7 7 7 6 5 4 4 8 10 12 13 11 15 16 16 16 14 14 13 12 11 11 10 9 8 7 7 7 6 6 6 7 7 7 7 8
15 17 14 16 14 13 13 12 11 12 11 11 11 11 12 11 12 11 13 11 9 8 9 10 12 10 6 5 6 6 8 6 5 7 10 9 11 10 8 9 9 9 8 8 7 7 7 8 8 7 7 6 6 5 5 4 4 6 7 10 8 9 13 15 16 15 14 14 13 12 11 10 9 8 8 7 7 7 6 7 7 7 7 8 9
16 17 16 14 17 15 14 13 12 12 12 11 10 10 12 12 13 12 13 13 10 8 8 9 10 11 11 9 6 4 4 5 5 4 7 7 8 9 10 10 9 8 8 8 8 8 7 8 8 7 7 7 6 6 5 5 6 5 6 7 11 11 12 14 16 16 15 14 13 12 11 11 10 9 9 9 8 8 7 8 8 8 8 9 9
17 16 17 16 15 15 15 14 13 12 11 11 11 12 11 12 11 12 12 11 11 10 10 9 8 9 10 12 12 9 6 3 5 3 5 6 5 7 9 8 8 9 8 9 9 8 8 8 7 7 7 7 6 6 6 6 8 7 9 9 13 13 13 13 15 15 16 15 13 12 11 11 11 10 10 10 9 9 9 9 9 9 9 9 10
15 16 15 16 16 16 15 15 14 13 12 12 12 11 10 10 11 12 11 10 12 12 10 10 10 9 10 11 12 11 10 9 8 7 6 6 6 5 5 7 7 8 8 9 9 10 9 8 8 7 7 7 7 7 7 7 6 6 6 10 11 13 14 14 13 13 14 14 14 12 12 12 11 11 11 11 11 10 10 10 10 10 10 10 10
15 14 15 16 13 14 14 15 14 15 11 11 12 12 13 11 12 12 12 12 11 11 10 10 11 9 9 10 10 10 9 9 9 7 8 9 10 8 6 5 4 5 7 9 9 8 8 9 7 7 7 7 7 7 7 6 6 6 8 12 13 13 15 15 13 13 11 11 11 12 12 12 12 11 12 12 12 11 11 11 11 10 10 10 10
13 14 14 15 15 14 13 15 15 14 11 12 12 12 12 12 12 12 12 13 11 11 12 10 10 10 10 8 9 8 8 8 9 10 8 9 10 9 6 7 9 7 9 9 11 10 8 8 7 8 8 7 7 7 7 7 7 6 9 14 13 14 14 15 14 13 12 11 11 10 10 11 12 12 12 12 12 12 12 12 12 11 11 11 11
11 12 14 14 14 13 14 13 12 12 12 12 13 12 12 12 12 13 12 13 11 12 11 11 10 10 11 10 10 10 10 10 10 8 9 9 8 11 11 8 9 8 9 12 10 10 9 8 8 8 9 8 7 7 8 8 9 9 12 15 14 15 14 14 14 14 13 14 13 13 13 12 12 13 13 13 12 12 12 12 12 11 11 11 11
11 11 13 14 13 13 13 13 12 14 15 13 11 12 11 11 12 13 13 13 13 11 11 12 14 10 11 11 10 10 10 10 8 9 10 12 11 9 8 7 8 9 5 7 10 9 10 10 9 8 8 7 8 7 8 9 9 14 11 15 15 15 14 14 15 15 16 16 15 15 14 14 14 14 13 13 13 13 13 13 12 12 11 12 11
13 13 13 16 14 13 13 13 14 13 13 15 12 12 11 12 12 13 13 13 13 14 13 12 12 13 11 11 10 11 11 9 8 9 10 9 10 10 8 7 8 6 8 7 5 5 7 8 8 8 7 8 7 8 8 8 8 12 14 11 16 13 14 14 15 16 17 18 17 16 16 15 15 14 14 13 14 14 14 13 13 12 12 12 12
13 14 13 14 14 14 13 14 15 13 13 13 12 12 12 12 13 13 14 13 12 14 14 12 11 12 11 10 11 11 11 10 10 10 11 9 10 11 8 7 8 8 2 3 2 3 5 6 5 5 6 7 7 8 8 8 8 13 16 10 13 14 15 15 16 17 18 19 19 18 17 17 16 15 14 14 14 14 14 14 13 13 12 12 12
11 11 11 12 13 12 13 14 14 14 13 11 10 11 11 11 12 13 12 12 13 12 13 13 12 14 13 12 10 10 10 9 9 10 10 10 9 9 8 9 6 6 5 3 1 8 4 2 7 6 7 7 7 8 8 8 9 13 14 9 7 15 14 15 16 18 18 19 20 19 19 18 17 16 15 14 14 14 14 14 13 13 13 12 12
9 9 10 11 12 13 13 14 13 13 12 11 12 11 11 12 12 11 12 8 10 12 11 11 13 14 14 13 11 11 10 10 10 9 9 9 8 8 9 9 9 8 3 6 5 7 6 6 3 8 8 8 8 8 9 9 7 13 14 9 8 10 17 17 18 18 18 18 18 19 19 18 17 16 16 15 14 14 14 14 14 13 12 12 12
9 8 9 11 11 12 12 13 13 12 12 11 11 11 11 11 11 11 11 10 10 11 11 11 11 11 11 13 12 11 11 9 8 9 9 8 8 8 8 9 7 9 7 6 7 8 5 9 7 7 10 8 8 6 7 8 8 12 9 10 10 9 16 19 18 17 17 18 17 18 18 18 17 16 16 15 14 14 15 15 14 13 13 13 13
9 8 9 11 11 11 11 12 12 12 12 12 12 12 11 10 10 11 11 10 10 10 11 11 11 10 10 10 10 10 10 9 8 8 8 9 8 8 7 7 7 10 8 9 7 8 5 6 8 4 6 7 5 5 5 6 11 13 10 11 11 11 16 19 18 18 17 17 17 17 17 17 17 17 16 15 14 14 15 15 15 14 14 14 15
10 10 11 11 10 11 12 11 11 12 12 12 12 11 12 11 11 11 11 11 10 11 12 11 10 9 10 11 11 11 10 10 9 9 8 8 8 6 6 6 8 9 9 6 8 3 6 7 7 6 4 5 5 4 3 3 7 11 9 10 11 13 14 16 20 17 16 16 15 15 16 17 17 17 16 15 14 14 15 15 15 14 15 15 15
10 11 11 11 11 11 11 12 12 12 12 12 12 12 12 11 11 11 11 12 11 11 11 10 9 10 11 11 12 11 10 8 8 9 9 8 7 7 7 7 7 8 7 7 10 6 4 4 4 2 3 4 5 6 6 5 7 14 9 10 11 11 9 8 16 17 14 14 14 14 15 15 15 16 16 15 15 15 15 16 16 16 16 16 15
10 11 11 12 12 11 11 11 13 13 13 12 12 12 12 12 12 12 11 12 12 10 10 11 10 11 11 11 11 12 10 11 9 9 9 9 8 8 8 8 9 8 8 8 8 7 2 1 1 3 3 7 4 7 8 8 7 9 10 7 7 7 6 5 6 11 13 12 13 14 14 14 14 14 14 14 14 15 15 16 16 15 15 15 14
11 11 12 10 11 12 12 12 12 13 13 13 13 12 13 13 14 11 11 12 12 11 10 11 11 11 10 11 12 11 10 11 9 10 10 9 10 9 9 9 8 7 7 8 8 8 9 2 2 3 4 5 5 6 8 9 9 7 9 5 4 5 5 5 5 7 14 14 13 13 14 14 13 13 13 12 13 13 13 14 15 15 15 14 15
10 11 12 12 11 12 12 12 12 12 13 13 13 13 13 14 14 13 12 12 12 12 12 12 11 10 11 12 12 12 10 11 11 10 9 10 9 10 10 8 9 8 8 9 8 9 8 6 6 6 6 6 7 6 8 5 4 5 6 6 6 4 5 6 7 5 10 15 16 15 15 14 14 14 13 13 13 13 14 14 15 14 14 15 15
11 11 12 12 12 11 11 11 12 13 13 13 13 13 14 13 14 14 13 13 12 12 12 11 11 11 12 11 11 11 10 11 11 10 10 10 10 10 10 9 9 9 8 8 9 8 7 7 3 7 6 6 3 1 2 3 4 5 5 3 3 5 5 6 6 5 6 12 14 16 16 15 15 14 14 14 13 13 14 15 15 15 15 15 15
10 10 10 11 11 11 11 12 13 14 13 13 13 13 12 12 13 13 13 12 12 12 12 12 12 12 12 13 12 11 11 12 11 11 10 11 9 9 9 9 8 8 7 8 8 6 6 7 4 1 2 2 2 2 3 4 2 2 2 5 6 7 7 7 5 5 6 8 12 14 14 15 15 15 14 14 14 14 15 15 15 15 15 15 15
10 10 10 9 10 11 11 11 12 12 12 12 12 12 11 11 11 12 12 11 11 12 11 12 12 12 13 12 11 11 12 12 11 10 10 11 10 10 10 9 8 7 8 6 5 6 6 7 6 4 2 4 2 2 2 3 4 2 3 4 4 5 6 7 7 6 6 6 5 6 9 11 14 15 14 14 15 15 16 15 15 15 16 16 17
11 11 10 10 10 10 10 9 11 11 11 10 10 10 10 10 11 11 11 11 12 11 12 12 12 12 12 12 11 11 12 12 11 11 9 8 9 10 11 10 8 7 7 7 6 6 6 5 4 5 5 2 3 3 2 3 2 4 5 3 6 6 6 8 7 5 5 7 8 10 9 8 8 8 12 15 16 16 16 16 16 17 17 17 17
11 12 11 11 9 8 10 10 11 10 10 9 9 10 11 11 11 11 11 11 11 11 11 12 12 11 11 11 11 11 12 11 11 10 10 10 8 9 8 7 6 7 7 6 6 7 7 5 7 5 4 4 4 3 4 5 3 4 7 7 7 5 7 7 7 5 4 6 6 4 6 7 7 8 10 11 14 16 17 16 17 16 16 17 17
9 10 10 10 9 9 9 10 11 10 10 11 10 10 11 11 10 11 11 11 11 11 10 10 9 10 11 12 11 10 11 13 16 15 14 13 10 9 7 7 7 8 6 5 6 7 6 6 5 4 5 5 5 6 5 7 10 10 5 6 6 4 3 4 5 6 5 4 4 4 4 6 5 6 5 7 8 11 13 16 12 17 18 17 18
8 7 8 8 8 10 11 11 10 11 11 10 13 17 15 11 10 10 10 11 12 11 11 10 9 9 11 10 10 14 15 16 17 17 17 16 15 12 10 9 9 8 7 7 7 7 7 7 7 7 6 7 7 9 9 8 5 2 5 7 8 5 3 4 3 4 6 5 4 5 5 4 5 4 5 6 5 7 6 7 7 8 11 16 17
8 7 6 8 10 11 11 10 11 11 11 11 17 17 18 19 14 11 12 11 11 11 11 12 11 10 9 8 7 9 12 13 14 16 15 15 15 14 12 14 13 13 9 9 8 9 8 7 6 7 7 8 8 9 10 8 6 7 5 6 5 3 4 4 5 1 2 5 5 4 4 4 6 6 5 6 4 4 4 6 8 11 13 13 13
9 5 8 11 10 10 10 11 11 12 12 15 17 18 19 19 17 13 11 11 11 11 11 11 10 9 9 9 7 7 7 9 9 10 12 14 14 13 12 14 15 15 14 13 10 7 7 7 7 8 8 9 8 8 8 7 7 6 6 4 5 5 5 5 4 3 1 3 4 3 5 2 4 5 5 4 4 4 4 6 9 11 13 14 13
5 9 12 10 11 10 10 12 13 13 12 15 18 20 19 19 20 17 12 11 11 11 10 10 9 8 8 8 8 7 7 11 8 7 7 8 10 13 11 13 13 14 12 12 11 11 9 7 8 7 9 7 6 7 9 9 5 6 5 4 5 5 5 5 5 2 1 1 3 3 3 3 5 4 4 3 4 3 3 6 11 13 13 13 12
9 10 10 11 10 10 12 12 12 11 11 13 17 18 18 18 18 17 12 11 11 11 11 10 9 9 9 9 9 8 6 6 6 7 7 7 7 8 7 7 7 9 9 10 10 10 9 8 8 8 6 5 6 4 7 7 7 7 7 6 5 5 6 5 1 3 1 2 4 3 2 3 4 3 3 1 4 2 3 5 9 10 11 11 11
11 12 11 11 12 11 11 10 10 11 11 12 13 14 15 16 16 15 11 10 10 8 8 8 9 9 9 10 9 9 8 9 8 10 9 9 9 8 9 7 7 7 7 6 6 6 5 4 5 4 3 4 3 4 5 7 8 5 6 4 5 4 2 3 1 3 2 2 1 2 3 1 1 1 3 3 3 3 3 5 8 8 8 8 8
8 7 9 10 12 11 9 8 9 12 10 11 13 13 14 14 14 10 9 9 9 7 7 6 7 7 7 8 8 8 8 9 11 15 12 10 9 9 9 7 5 5 5 4 6 5 4 3 3 4 5 5 6 6 5 5 3 5 6 5 5 4 4 3 3 3 3 2 3 3 2 1 2 1 0 3 2 2 2 1 2 4 5 6 6
8 9 11 9 8 8 9 9 10 12 10 9 12 14 14 14 11 8 7 7 6 7 7 6 6 6 7 8 8 8 8 9 12 15 14 13 9 10 9 9 7 5 5 4 7 8 7 8 8 9 8 7 6 7 8 8 6 6 5 5 4 4 4 4 4 4 4 3 3 4 1 2 1 1 1 1 1 2 1 2 4 5 5 5 5
10 11 8 8 9 9 10 11 11 11 11 9 13 14 15 15 13 9 8 7 7 7 6 6 5 6 7 11 11 9 10 10 12 16 15 13 10 10 9 9 8 7 5 5 4 5 7 8 8 8 8 7 7 6 7 7 10 8 7 6 5 5 4 4 4 4 3 2 3 3 3 2 1 1 0 2 2 0 0 2 1 1 2 2 2
10 8 6 9 8 8 9 10 10 12 10 9 13 14 16 16 12 9 7 7 7 8 7 7 4 4 5 7 11 10 10 10 16 16 17 14 9 10 10 10 9 9 8 8 8 8 6 5 4 6 5 6 5 4 4 8 9 7 2 2 6 5 5 4 4 1 2 1 1 1 3 1 3 1 2 3 2 1 1 0 1 0 0 0 1
Wind_Direction
216 215 216 217 218 228 227 229 227 228 228 223 213 206 207 207 207 218 210 221 214 202 218 260 245 210 196 208 233 231 224 236 240 232 260 247 140 126 101 229 359 351 345 331 196 172 166 165 164 161 161 162 161 160 164 158 157 152 145 142 144 145 143 132 123 120 107 101 90 78 69 65 53 44 35 24 38 20 15 13 23 17 16 17 12
208 211 210 210 209 214 220 224 226 222 220 218 210 209 203 206 212 211 214 218 237 238 270 241 228 240 235 239 230 247 218 235 216 226 227 232 194 138 155 138 217 339 347 310 281 178 174 170 174 170 168 171 175 178 171 165 161 162 158 154 160 163 155 146 137 137 129 112 105 84 74 71 56 46 37 21 29 24 8 8 15 15 20 16 10
215 208 209 206 206 207 209 213 215 214 215 216 208 207 208 211 208 208 212 212 218 227 208 250 244 230 219 213 232 235 230 222 240 238 235 222 224 156 159 168 186 3 319 314 304 196 179 177 171 181 189 182 184 188 176 172 173 175 173 173 172 171 162 155 156 149 144 133 112 95 85 77 60 47 32 25 24 22 3 7 17 10 13 12 15
228 219 218 214 211 206 207 208 213 212 209 208 208 201 212 219 210 221 232 220 236 234 214 234 239 243 236 210 218 232 221 222 228 226 244 250 238 220 174 170 178 196 300 322 315 224 182 180 183 186 198 190 195 186 188 186 185 183 187 188 181 178 174 167 168 164 151 144 128 118 99 85 67 47 32 22 19 17 2 5 10 15 13 7 10
226 228 222 229 224 215 214 212 212 210 204 201 203 202 209 211 197 200 220 235 240 241 227 239 253 246 244 231 231 218 224 218 222 225 227 248 236 230 227 180 189 168 174 327 313 262 201 196 192 197 203 198 192 195 192 193 188 193 195 196 188 187 186 182 180 179 166 152 150 131 126 100 70 57 33 15 12 12 1 2 9 13 8 9 4
225 225 225 230 231 223 220 216 211 208 202 194 196 201 202 199 206 194 209 218 226 228 233 228 228 233 233 233 240 238 221 227 230 224 219 231 235 225 234 211 200 210 178 122 287 276 187 219 199 207 206 199 192 202 197 197 199 199 200 199 194 199 198 192 192 188 181 169 160 161 142 142 107 74 38 13 1 9 360 2 7 14 358 7 6
223 228 222 226 231 228 220 221 213 201 202 200 198 197 199 203 204 205 211 216 226 228 225 232 236 230 220 216 221 230 229 222 223 233 232 239 232 237 230 234 209 225 208 200 118 211 204 216 215 184 188 194 197 200 203 206 205 205 202 203 202 206 204 197 199 195 185 183 180 177 188 181 168 237 54 1 360 1 355 352 6 9 357 5 360
222 225 229 224 228 231 223 217 213 207 207 200 198 201 197 204 205 212 222 219 221 226 225 228 230 235 230 230 226 227 231 227 223 222 212 223 232 236 232 231 223 218 211 222 187 86 315 168 164 182 183 196 200 202 209 208 210 212 208 210 211 209 205 204 204 203 195 190 191 197 202 210 224 263 6 351 355 357 353 350 353 8 356 356 355
222 220 225 228 227 228 226 215 208 213 206 203 195 203 200 201 213 217 225 231 222 228 228 224 225 231 235 231 234 230 233 234 227 224 214 223 224 218 224 236 222 201 207 241 174 139 69 205 171 179 191 196 203 209 212 214 216 218 215 215 215 213 207 205 209 207 202 197 202 210 212 226 248 272 320 342 356 351 349 342 348 352 349 353 355
222 220 223 229 225 228 225 215 208 210 214 210 204 202 209 209 215 217 217 225 234 228 225 226 227 229 232 236 230 232 237 237 231 210 220 220 234 213 212 224 208 203 218 211 227 157 158 168 156 154 169 191 207 214 213 216 221 222 221 219 220 221 218 210 211 208 205 206 210 215 223 226 242 275 294 325 341 339 336 330 342 338 342 347 348
218 220 222 226 225 227 227 216 211 210 213 217 214 208 209 212 217 218 217 222 230 233 236 228 224 225 236 243 242 237 238 231 230 221 217 208 219 212 208 208 200 203 209 219 214 189 171 181 192 195 197 206 209 210 215 217 224 227 226 225 224 221 222 223 214 209 209 210 213 219 226 229 235 261 275 295 306 311 319 318 325 325 334 339 343
215 216 219 222 226 221 222 219 213 210 214 217 215 209 208 211 216 221 225 221 222 241 237 231 236 241 235 238 243 241 236 236 234 232 228 229 220 193 197 205 203 200 208 207 207 198 184 192 196 204 203 193 212 211 213 222 227 232 233 229 227 228 224 223 223 215 212 212 216 220 224 231 235 241 257 273 281 291 296 304 312 321 326 334 338
205 215 219 219 224 223 220 220 215 211 215 220 217 215 210 211 214 214 222 228 223 216 234 236 234 236 233 238 240 235 234 231 236 239 238 227 199 194 204 202 203 198 203 203 206 199 198 201 205 207 212 175 200 216 217 218 220 230 235 236 231 228 227 226 223 219 215 215 217 220 224 229 232 235 243 257 264 274 279 289 301 313 318 330 328
203 208 215 217 218 222 221 216 217 211 216 219 216 214 212 210 208 214 210 221 228 210 210 207 224 226 230 231 234 225 220 203 221 234 234 213 204 200 201 205 202 203 202 202 206 202 205 208 210 212 213 199 194 198 212 219 223 229 232 237 237 234 231 227 227 228 224 216 218 222 222 225 230 237 236 244 251 261 271 283 295 302 310 320 318
210 201 210 214 217 219 220 214 213 207 209 213 213 211 210 210 208 211 208 212 224 217 206 199 219 214 228 254 252 254 190 205 222 225 218 207 198 201 201 207 207 205 201 205 207 206 206 210 214 214 209 208 200 200 201 207 214 215 227 234 236 236 234 230 229 227 228 222 220 222 222 225 230 236 240 241 249 255 266 278 290 300 306 310 310
211 206 199 208 212 215 216 212 207 204 208 208 206 208 207 209 209 210 214 215 208 217 211 203 211 199 213 213 230 231 254 207 212 216 212 215 207 204 198 206 209 204 206 212 212 208 207 210 215 212 210 207 208 209 205 205 210 208 215 228 244 241 236 234 230 228 230 224 224 223 225 226 229 235 242 247 248 257 264 274 282 292 301 301 303
208 211 204 207 210 212 213 208 206 204 206 209 206 205 206 208 206 206 207 214 213 209 207 207 206 215 232 202 213 233 234 257 189 208 188 205 204 205 199 204 209 204 207 214 213 211 210 213 215 211 207 206 207 207 207 206 188 190 205 220 234 247 244 238 233 230 225 224 228 229 225 228 231 236 242 247 251 256 264 271 277 280 286 290 294
215 216 213 209 213 213 212 207 206 206 205 209 207 202 204 205 205 206 208 211 222 207 206 202 210 211 230 251 249 240 215 207 198 225 167 206 195 206 207 209 206 203 208 215 211 212 209 217 209 209 204 205 202 202 206 203 199 191 203 212 216 228 237 242 238 233 228 227 229 231 229 228 233 236 241 247 253 258 259 265 270 275 278 283 291
217 215 215 213 214 215 215 213 210 208 202 207 208 206 204 204 201 204 208 206 211 225 211 197 196 220 224 238 251 254 267 220 207 236 229 194 220 195 215 212 212 210 210 219 217 214 216 214 209 204 202 203 200 200 203 204 202 200 203 206 211 214 224 237 240 234 231 229 230 233 235 232 234 238 241 247 252 255 258 261 265 269 272 277 284
212 214 213 212 213 215 215 216 214 209 201 206 208 206 208 204 203 204 206 207 206 213 218 209 190 206 209 228 236 243 245 252 255 260 266 260 204 209 228 207 217 219 218 223 222 219 218 211 209 200 203 201 200 203 203 205 201 201 205 209 210 205 214 223 232 238 235 232 232 233 235 237 238 240 243 248 249 251 255 259 263 266 269 274 280
210 211 211 212 207 211 211 215 214 217 204 207 208 207 207 207 202 204 205 208 208 211 216 217 210 208 184 214 227 230 228 233 242 222 242 251 254 227 193 203 227 231 224 228 229 225 216 217 206 199 204 201 199 203 203 201 201 193 200 199 206 206 211 216 222 227 232 234 237 237 235 237 239 241 246 249 249 250 252 256 261 264 268 274 278
209 209 209 210 208 207 212 215 215 217 211 206 206 207 209 213 212 209 208 209 212 210 215 217 218 214 195 189 202 215 226 230 222 227 222 229 249 239 208 172 216 219 215 221 227 222 219 217 210 201 205 205 197 198 201 202 201 195 199 191 197 205 209 213 215 218 220 223 227 236 240 238 241 244 247 248 250 250 251 254 256 261 267 273 277
204 207 209 206 208 205 208 213 216 217 216 210 207 206 208 214 217 219 215 215 215 215 213 218 221 218 213 205 201 199 206 208 210 197 210 225 227 245 244 220 220 236 203 212 219 219 215 212 211 204 205 205 198 194 198 205 200 200 189 187 191 200 206 210 213 216 217 219 222 225 230 234 241 248 250 252 252 251 252 253 256 261 266 271 276
203 202 204 204 202 206 205 210 217 219 220 218 207 209 212 215 219 222 223 220 224 224 221 216 216 221 219 217 215 211 209 213 210 207 216 226 230 230 223 222 236 236 238 202 209 207 209 210 211 208 203 201 200 196 198 200 206 193 182 186 188 194 201 205 211 214 216 218 223 226 229 233 236 240 245 252 256 256 256 257 259 262 265 269 274
206 204 203 200 200 203 204 208 218 218 220 220 217 213 212 219 222 222 222 220 219 222 225 219 213 216 217 217 220 220 221 211 206 214 217 219 229 241 228 200 218 222 218 197 199 204 205 211 207 210 202 198 201 200 201 201 207 188 184 185 187 189 196 204 212 215 216 218 220 223 226 230 234 234 239 246 251 255 257 261 263 264 266 271 275
205 204 201 197 201 203 202 209 213 215 217 220 219 215 212 219 221 222 223 222 222 219 224 223 222 225 223 220 221 222 227 220 216 216 220 212 222 233 240 224 214 227 130 188 156 177 222 213 204 204 205 207 206 202 203 200 206 184 183 181 187 187 194 201 211 218 219 219 219 221 225 228 231 235 239 243 247 250 253 258 263 266 269 273 275
209 208 200 193 196 196 200 209 209 213 212 210 218 223 216 220 225 226 225 227 224 220 224 219 220 225 223 226 226 226 226 219 219 224 225 223 220 223 227 237 233 229 208 189 297 225 224 165 200 207 212 208 209 206 202 203 199 171 180 180 182 194 194 200 209 216 221 222 221 220 224 227 229 233 237 243 247 250 254 256 259 264 270 274 276
211 206 198 192 190 194 196 204 205 206 207 208 215 221 220 219 224 227 228 221 226 222 226 223 224 225 228 227 229 232 229 225 219 224 227 228 222 224 231 234 230 237 204 233 210 251 210 233 185 206 204 206 207 207 202 192 196 165 174 186 184 191 199 203 209 213 218 222 224 223 224 227 230 232 235 239 245 252 257 260 263 268 272 275 275
215 204 205 194 192 195 198 202 204 204 204 207 213 216 220 222 224 224 226 223 220 221 220 221 225 226 228 227 230 232 232 234 230 226 226 226 228 228 228 229 222 237 224 224 215 226 214 206 225 211 199 199 201 200 193 192 174 161 177 190 195 194 200 204 206 212 216 219 223 225 226 227 231 232 236 239 244 250 254 255 258 261 265 268 272
213 206 204 196 195 189 202 202 203 202 205 208 211 214 212 218 222 226 226 226 223 217 217 218 218 221 223 225 226 232 230 232 235 234 227 228 231 226 223 219 220 232 229 245 245 189 204 196 210 214 179 196 193 187 190 190 165 169 183 193 201 208 199 198 204 210 212 217 222 224 225 229 233 234 237 240 245 252 255 257 260 263 265 269 272
209 205 197 194 193 196 200 201 200 202 206 210 212 212 208 213 216 222 220 220 222 216 217 215 217 215 216 220 221 228 225 229 230 234 234 227 231 231 230 222 223 219 227 228 257 212 192 183 209 217 162 179 162 145 142 170 171 179 187 201 207 213 196 197 203 209 211 215 221 225 228 230 233 235 238 241 245 250 253 257 261 266 268 270 273
216 208 202 196 198 198 199 202 202 202 203 206 212 215 211 211 209 216 216 213 215 216 213 213 214 215 214 216 218 223 221 223 221 223 225 226 223 226 225 225 220 220 216 225 238 237 213 187 175 141 119 136 132 159 166 173 175 189 202 208 211 203 187 199 205 209 212 215 217 222 228 233 237 239 242 244 245 249 253 257 260 264 267 268 270
222 218 211 203 199 198 201 203 207 209 212 213 211 212 213 211 211 216 215 211 211 211 208 211 210 213 214 216 217 222 218 221 220 223 226 225 221 225 223 220 223 213 209 221 231 241 215 344 110 162 139 133 168 177 175 186 188 202 209 213 199 194 196 194 196 210 216 219 219 221 225 230 234 240 244 245 246 252 258 261 263 264 266 268 271
228 228 225 222 215 208 210 212 213 215 215 214 212 211 212 211 211 211 212 206 206 208 206 213 211 212 213 216 219 221 219 223 216 219 218 219 218 221 218 215 218 208 199 210 227 230 230 141 195 156 163 182 185 188 185 185 201 190 202 197 203 203 202 204 210 205 206 220 224 226 228 229 233 237 240 241 245 251 256 259 261 262 262 263 266
229 232 231 231 223 212 212 214 214 218 218 216 213 213 213 210 207 208 207 203 204 206 209 213 213 213 217 217 220 218 217 220 218 221 216 220 217 221 220 212 219 213 203 207 213 223 219 219 182 176 188 186 202 194 199 202 181 168 178 193 199 200 211 213 216 222 190 205 218 224 228 231 233 233 233 235 239 245 249 253 255 256 258 262 264
231 232 233 231 225 210 210 209 211 213 216 216 215 213 213 210 211 210 211 211 209 210 211 214 216 216 219 220 221 216 214 218 218 218 218 217 215 217 219 215 212 211 208 204 212 219 212 214 206 198 191 173 210 58 113 88 143 172 193 178 185 211 213 218 221 219 197 197 210 217 224 230 233 234 233 234 238 242 245 248 250 252 255 257 259
233 234 232 228 223 210 209 209 211 213 215 217 218 216 213 211 211 215 216 216 217 217 217 216 214 216 220 222 221 214 215 223 221 220 215 214 212 212 216 215 209 209 210 204 208 201 193 209 198 190 114 128 85 98 136 143 114 122 132 201 210 218 223 225 226 224 219 198 207 213 220 227 232 236 236 237 239 241 244 246 249 249 251 252 254
233 231 227 214 216 219 217 214 216 218 219 220 220 218 215 215 220 221 220 219 219 218 218 217 217 216 220 220 218 214 216 219 221 218 214 212 211 212 214 213 206 203 205 203 188 189 198 210 175 168 162 172 136 134 161 134 143 146 202 227 236 221 217 228 224 216 215 212 200 212 221 226 232 236 238 239 239 239 242 245 247 249 249 249 250
229 232 225 223 221 227 228 222 222 221 222 221 224 222 222 221 222 223 222 220 218 218 219 219 218 218 219 220 219 215 218 220 222 220 217 215 212 215 211 209 199 195 195 189 180 186 195 197 194 179 159 156 139 143 150 164 158 185 191 190 235 222 222 223 232 213 201 214 217 214 211 207 215 222 234 238 241 241 243 245 247 246 247 247 249
220 227 230 228 227 221 225 226 225 222 224 222 217 220 222 221 218 219 218 220 222 223 221 218 216 217 221 223 222 217 216 217 218 220 212 211 206 213 211 202 187 184 192 182 178 183 189 195 197 176 151 143 144 95 121 153 183 237 218 210 227 210 215 216 219 213 191 196 217 212 215 218 229 234 238 241 240 241 243 247 247 248 247 249 250
221 224 225 223 220 219 218 221 223 219 221 222 219 216 218 219 217 217 217 218 219 221 224 223 221 219 220 220 218 218 216 215 214 213 211 206 199 207 205 183 180 182 181 174 176 179 187 184 191 152 147 164 178 154 159 184 197 210 184 197 235 233 206 203 219 209 201 190 212 210 210 191 212 222 223 232 237 236 243 241 245 246 247 250 252
229 219 223 224 222 222 222 220 218 218 220 220 216 212 209 211 213 216 216 217 216 217 218 220 220 219 221 220 217 213 214 215 216 215 214 207 201 201 191 181 177 178 180 179 182 187 179 185 192 174 176 196 191 195 194 207 197 182 163 189 217 227 232 254 238 192 197 192 205 224 224 185 185 213 205 223 227 212 224 225 232 233 241 247 250
245 232 222 224 224 225 224 222 219 219 220 219 213 209 210 209 210 214 214 216 214 216 218 218 218 215 219 219 222 216 217 219 218 217 213 207 202 204 189 184 182 179 179 184 193 182 183 190 179 178 195 205 205 188 205 195 185 195 194 188 205 181 206 218 249 94 154 172 201 235 254 180 173 214 221 226 219 215 217 231 236 235 235 241 244
250 254 236 230 229 226 225 225 224 221 222 216 209 211 210 210 209 215 217 217 214 216 216 218 219 213 213 214 218 215 212 213 207 211 212 205 198 195 186 187 190 192 184 179 177 178 180 181 185 198 190 211 203 182 195 184 194 190 200 182 192 197 205 218 233 231 175 164 164 195 254 149 174 203 232 231 206 210 217 224 238 243 250 252 249
246 238 242 239 235 232 229 229 230 227 227 214 210 212 210 210 211 212 221 217 215 218 216 215 215 211 207 209 214 212 214 211 209 200 190 193 192 186 181 187 193 192 193 196 185 181 175 179 188 196 200 194 197 203 190 194 167 178 178 189 193 202 212 221 229 168 212 225 143 184 243 193 164 199 230 223 189 200 200 222 242 253 255 255 253
229 241 243 240 241 234 232 236 240 239 236 224 214 215 212 210 211 211 225 221 221 219 215 207 206 205 204 204 205 210 204 195 196 190 181 172 166 166 167 178 190 201 198 192 186 175 174 184 182 198 197 172 204 189 181 164 159 177 173 202 189 198 205 214 104 96 152 206 179 160 256 221 167 183 232 203 143 168 195 228 243 251 257 259 263
222 226 230 233 234 233 233 233 243 245 243 236 227 223 219 216 215 212 223 225 227 224 215 207 205 205 202 201 200 202 193 193 192 185 176 170 166 172 172 181 187 181 185 189 185 179 177 181 187 178 160 166 147 122 153 164 175 172 177 184 181 178 138 97 114 131 132 205 239 134 240 110 49 174 222 169 138 196 213 236 254 266 276 281 282
247 242 242 234 235 230 231 228 234 244 244 232 227 226 224 222 220 222 228 229 227 221 217 211 210 205 199 194 198 201 192 195 193 186 182 167 167 168 172 174 172 163 174 166 159 151 158 163 142 122 101 98 100 127 138 142 127 106 92 83 84 104 132 165 222 181 181 162 194 175 218 211 142 153 245 112 139 267 252 222 278 334 333 318 303
251 244 240 240 246 240 230 223 228 241 243 228 223 223 224 223 220 224 221 227 229 220 218 206 206 203 200 193 193 196 190 199 185 183 182 163 164 170 169 169 169 163 161 120 107 106 106 100 94 94 95 94 98 113 134 142 150 138 119 119 162 157 158 191 218 189 195 148 213 201 165 263 159 121 327 304 217 254 335 60 59 12 328 321 313
242 244 246 247 239 234 229 224 219 230 240 218 212 217 218 218 210 215 211 211 219 211 212 205 204 203 202 198 194 188 188 193 178 182 179 168 166 168 164 159 165 177 170 142 123 101 96 95 98 101 105 112 115 125 139 144 142 145 149 182 175 159 184 191 204 191 120 139 167 182 145 213 134 127 327 275 234 89 84 66 48 29 343 327 332
246 250 240 245 247 238 233 231 213 219 234 221 207 213 216 214 208 208 200 199 204 207 199 204 196 193 194 199 202 196 191 185 177 182 181 177 170 169 168 165 178 190 186 161 152 143 143 130 119 111 97 112 123 126 135 137 147 154 148 125 146 165 182 195 195 176 158 167 238 225 152 129 95 98 113 5 1 98 25 313 199 163 193 56 31